[[{"header":{"parameterUnit":"m.s-1","parameterCategory":1,"la1":30.2991,"la2":30.254,"lo1":-89.0895,"lo2":-89.0444,"dy":0.0017,"dx":0.0017,"nx":28,"ny":28,"refTime":"2024-05-12T03:00:00:Z","depth":0,"parameterNumber":2,"parameterNumberName":"U-component_of_WINDS"},"data":[0,0,0,0,0,0,0,0,0,0,0,0,0,0,0,0,0,0,0,0,0,0,0,0,0,0,0,0,0,0,0,0,0,0,0,0,0,0,0,0,0,0,0,0,0,0,0,0,0,0,0,0,0,0,0,0,0,0,-1.3516,-1.3517,0,-1.3648,-1.3649,-1.3651,-1.3729,-1.3729,-1.3729,-1.3729,-1.3868,-1.3871,-1.3874,0,0,0,0,0,0,0,0,0,0,0,0,0,-1.3333,-1.3336,-1.3515,-1.3517,-1.3519,-1.3648,-1.3649,-1.3651,-1.3728,-1.3729,-1.3729,-1.373,-1.3866,-1.387,-1.3874,0,0,0,0,0,0,0,0,0,0,0,0,0,-1.3434,-1.3337,-1.3515,-1.3573,-1.3579,-1.3647,-1.365,-1.3652,-1.3728,-1.3729,-1.3729,-1.373,-1.3865,-1.387,-1.3875,-1.3897,0,0,-1.3891,-1.3893,0,0,0,0,0,0,0,0,-1.3428,-1.344,-1.3563,-1.3569,-1.3576,-1.3672,-1.3636,-1.3734,-1.3728,-1.3672,-1.3729,-1.373,-1.3802,-1.3813,-1.3836,-1.3903,-1.3909,-1.3891,-1.3894,-1.3896,-1.3898,0,0,0,0,0,0,0,-1.3421,-1.3435,-1.3568,-1.3564,-1.3573,-1.3593,-1.3608,-1.3655,-1.3733,-1.3677,-1.3683,-1.3697,-1.3806,-1.3831,-1.384,-1.3911,-1.3891,-1.3895,-1.3898,-1.39,-1.4005,-1.4005,0,0,0,0,0,0,-1.3404,-1.3429,-1.3564,-1.3572,-1.3502,-1.3596,-1.3613,-1.3641,-1.3733,-1.3747,-1.3697,-1.37,-1.3822,-1.3834,-1.3845,-1.3878,-1.3896,-1.3901,-1.3904,-1.4005,-1.4005,-1.4005,0,0,0,0,0,0,-1.34,-1.3416,-1.3558,-1.3502,-1.3522,-1.3599,-1.363,-1.3643,-1.3669,-1.3748,-1.3762,-1.3708,-1.3823,-1.3838,-1.3884,-1.3884,-1.3903,-1.3908,-1.4006,-1.4005,-1.4005,-1.3943,0,0,0,0,0,0,-1.3395,-1.3414,-1.3422,-1.3502,-1.3524,-1.3593,-1.363,-1.3646,-1.3677,-1.3683,-1.3762,-1.3775,-1.3825,-1.3876,-1.3889,-1.3892,-1.3912,-1.4006,-1.4006,-1.4005,-1.3946,-1.3941,-1.3937,0,0,0,0,0,-1.3388,-1.3399,-1.3422,-1.3438,-1.3536,-1.3593,-1.3606,-1.3662,-1.3676,-1.3686,-1.3737,-1.3773,-1.3882,-1.388,-1.3895,-1.3899,-1.4006,-1.4006,-1.4005,-1.3948,-1.3942,-1.3937,0,0,0,0,0,0,-1.3318,-1.3411,-1.3437,-1.3474,-1.3525,-1.3606,-1.362,-1.3654,-1.3702,-1.3706,-1.3774,-1.3791,-1.3831,-1.387,-1.3866,-1.3926,-1.3948,-1.3951,-1.3899,-1.3894,-1.389,-1.388,-1.3916,0,0,0,0,0,-1.3307,-1.3344,-1.3424,-1.3449,-1.3473,-1.3542,-1.3569,-1.3607,-1.3663,-1.3685,-1.374,-1.3794,-1.384,-1.387,-1.3917,-1.3952,-1.3971,-1.3962,-1.3958,-1.3954,-1.3955,-1.3979,-1.3976,-1.4003,-1.4003,-1.4003,0,0,-1.3284,-1.3339,-1.3359,-1.3436,-1.348,-1.3519,-1.3559,-1.3598,-1.3628,-1.3692,-1.3738,-1.378,-1.3845,-1.3885,-1.3906,-1.3919,-1.3952,-1.3953,-1.3949,-1.3953,-1.3978,-1.3975,-1.3973,-1.4002,-1.4003,-1.4003,0,0,-1.3263,-1.3308,-1.3335,-1.3378,-1.3444,-1.349,-1.3496,-1.3573,-1.3603,-1.365,-1.3699,-1.3736,-1.3815,-1.3859,-1.3892,-1.3889,-1.3925,-1.3903,-1.388,-1.3902,-1.39,-1.3898,-1.3898,-1.3897,-1.3904,-1.3904,-1.3904,0,-1.3227,-1.3286,-1.3344,-1.3381,-1.3414,-1.3473,-1.3502,-1.3541,-1.3619,-1.3642,-1.3655,-1.3756,-1.3804,-1.3856,-1.3856,-1.388,-1.3891,-1.3894,-1.3895,-1.3894,-1.3894,-1.3895,-1.3894,-1.3901,-1.3901,-1.3902,-1.3902,0,-1.3239,-1.3279,-1.3293,-1.3367,-1.3402,-1.3434,-1.3499,-1.3527,-1.3563,-1.3608,-1.3657,-1.3716,-1.3777,-1.3793,-1.3828,-1.3851,-1.3857,-1.3882,-1.3905,-1.3887,-1.3889,-1.389,-1.3897,-1.3898,-1.3899,-1.3899,0,0,-1.3177,-1.3283,-1.3287,-1.3322,-1.34,-1.3433,-1.3469,-1.3528,-1.3552,-1.3604,-1.3637,-1.3702,-1.3726,-1.3763,-1.3805,-1.3824,-1.382,-1.3847,-1.3849,-1.384,-1.385,-1.3832,-1.3831,-1.3844,-1.3844,-1.3844,-1.3845,0,-1.3168,-1.3233,-1.3288,-1.3334,-1.3373,-1.343,-1.3462,-1.3514,-1.3557,-1.3597,-1.3646,-1.3692,-1.3719,-1.3742,-1.3763,-1.3815,-1.3823,-1.3816,-1.3876,-1.3877,-1.3858,-1.3832,-1.3812,-1.3811,-1.3846,-1.3847,-1.3847,0,-1.3165,-1.3215,-1.3265,-1.334,-1.3359,-1.3386,-1.3445,-1.3482,-1.3543,-1.3574,-1.3616,-1.3659,-1.3701,-1.372,-1.378,-1.3774,-1.3803,-1.3832,-1.3833,-1.3842,-1.3861,-1.3841,-1.3811,-1.3811,-1.3849,-1.3848,-1.3848,0,-1.3116,-1.3196,-1.3236,-1.3264,-1.3353,-1.3371,-1.3409,-1.347,-1.3503,-1.3555,-1.3577,-1.3634,-1.3665,-1.3708,-1.3767,-1.3775,-1.3821,-1.3845,-1.3849,-1.3847,-1.3856,-1.3855,-1.3832,-1.3873,-1.3873,-1.3873,-1.3873,0,-1.3101,-1.3129,-1.3216,-1.3241,-1.3275,-1.3338,-1.3371,-1.3414,-1.3468,-1.3504,-1.3557,-1.3589,-1.3664,-1.3706,-1.3752,-1.3795,-1.3809,-1.3836,-1.3848,-1.3831,-1.3828,-1.3851,-1.3853,-1.3873,-1.3873,-1.3873,-1.3873,0,-1.3052,-1.3111,-1.3159,-1.3239,-1.326,-1.3281,-1.3351,-1.3378,-1.3424,-1.3469,-1.3483,-1.3556,-1.3609,-1.3671,-1.3743,-1.3775,-1.3815,-1.3832,-1.3794,-1.3801,-1.3802,-1.3801,-1.3793,-1.3796,-1.3833,-1.3833,-1.3832,0,-1.3038,-1.3062,-1.3144,-1.3171,-1.3207,-1.325,-1.3284,-1.3348,-1.3381,-1.3452,-1.3471,-1.3528,-1.3576,-1.3657,-1.3718,-1.3775,-1.3794,-1.3788,-1.3803,-1.3786,-1.3796,-1.3794,-1.3797,-1.3783,-1.3783,-1.3782,-1.3782,0,-1.3008,-1.3037,-1.3082,-1.3138,-1.3177,-1.3224,-1.3274,-1.3294,-1.3368,-1.3403,-1.3456,-1.3494,-1.3568,-1.3624,-1.3688,-1.3729,-1.3768,-1.3776,-1.3781,-1.3764,-1.3742,-1.3755,-1.3783,-1.3776,-1.3777,-1.3777,-1.3778,-1.3778,-1.2978,-1.3002,-1.3064,-1.3113,-1.3157,-1.3203,-1.3233,-1.3283,-1.3329,-1.3394,-1.3429,-1.3482,-1.3545,-1.3635,-1.3675,-1.3719,-1.3732,-1.3738,-1.3739,-1.374,-1.3736,-1.3734,-1.373,-1.3731,-1.3731,-1.3731,-1.3731,0,-1.2952,-1.2995,-1.3039,-1.3107,-1.3147,-1.3179,-1.3237,-1.3268,-1.3314,-1.3368,-1.3415,-1.3478,-1.3532,-1.3597,-1.3657,-1.368,-1.3699,-1.3693,-1.3693,-1.3702,-1.372,-1.371,-1.3676,-1.3676,-1.3676,-1.3676,-1.3676,-1.3676,-1.2943,-1.2985,-1.3021,-1.3087,-1.313,-1.3182,-1.3212,-1.3255,-1.3299,-1.3366,-1.3412,-1.3454,-1.3513,-1.3578,-1.363,-1.3648,-1.3668,-1.3657,-1.368,-1.3696,-1.37,-1.3705,-1.3697,-1.366,-1.366,-1.3659,-1.3659,-1.3659]},{"header":{"parameterUnit":"m.s-1","parameterCategory":1,"la1":30.2991,"la2":30.254,"lo1":-89.0895,"lo2":-89.0444,"dy":0.0017,"dx":0.0017,"nx":28,"ny":28,"refTime":"2024-05-12T03:00:00:Z","depth":0,"parameterNumber":3,"parameterNumberName":"V-component_of_WINDS"},"data":[0,0,0,0,0,0,0,0,0,0,0,0,0,0,0,0,0,0,0,0,0,0,0,0,0,0,0,0,0,0,0,0,0,0,0,0,0,0,0,0,0,0,0,0,0,0,0,0,0,0,0,0,0,0,0,0,0,0,6.3857,6.3858,0,6.3995,6.3997,6.3998,6.3986,6.3984,6.3982,6.398,6.4117,6.4122,6.4128,0,0,0,0,0,0,0,0,0,0,0,0,0,6.3575,6.358,6.3856,6.3858,6.386,6.3995,6.3997,6.3999,6.3987,6.3984,6.3981,6.3979,6.4115,6.4121,6.4128,0,0,0,0,0,0,0,0,0,0,0,0,0,6.3704,6.3582,6.3856,6.387,6.3873,6.3995,6.3997,6.3999,6.3987,6.3984,6.3981,6.3978,6.4113,6.4121,6.4129,6.4244,0,0,6.4155,6.4158,0,0,0,0,0,0,0,0,6.3696,6.3714,6.3867,6.387,6.3873,6.397,6.3948,6.4081,6.3988,6.3944,6.398,6.3976,6.407,6.4082,6.4115,6.425,6.4256,6.4155,6.416,6.4164,6.4166,0,0,0,0,0,0,0,6.3687,6.3708,6.3911,6.3869,6.3873,6.3868,6.3882,6.3973,6.4023,6.3947,6.3947,6.3964,6.4071,6.4107,6.4118,6.4258,6.4155,6.4163,6.4168,6.4171,6.4492,6.4496,0,0,0,0,0,0,6.3676,6.3701,6.3907,6.3915,6.3775,6.3875,6.3892,6.3942,6.4022,6.4031,6.3966,6.3963,6.4094,6.4108,6.4122,6.426,6.4164,6.4172,6.4177,6.4489,6.4493,6.4497,0,0,0,0,0,0,6.367,6.3695,6.3901,6.3808,6.3834,6.3884,6.394,6.3947,6.3982,6.4036,6.4044,6.3994,6.4092,6.4111,6.4214,6.4265,6.4176,6.4183,6.4485,6.449,6.4495,6.4538,0,0,0,0,0,0,6.3662,6.3693,6.3738,6.3809,6.3839,6.3992,6.3943,6.3951,6.3997,6.3994,6.4064,6.4072,6.4091,6.4201,6.4222,6.4275,6.419,6.448,6.4487,6.4493,6.4532,6.4544,6.4555,0,0,0,0,0,6.3652,6.3744,6.3741,6.3766,6.3898,6.3995,6.4012,6.4033,6.4001,6.4046,6.4081,6.407,6.4256,6.4212,6.4235,6.4291,6.4477,6.4485,6.4493,6.4527,6.4542,6.4554,0,0,0,0,0,0,6.3677,6.3754,6.3751,6.3869,6.3926,6.3993,6.4051,6.4048,6.4113,6.4107,6.4128,6.4144,6.4248,6.428,6.4229,6.4405,6.4362,6.4375,6.4381,6.4395,6.4406,6.4395,6.4197,0,0,0,0,0,6.3696,6.3771,6.3834,6.3932,6.3961,6.4001,6.4044,6.4055,6.4114,6.4138,6.418,6.4236,6.4306,6.4353,6.4421,6.4537,6.4551,6.4587,6.4598,6.4607,6.4618,6.4679,6.4695,6.4523,6.4523,6.4523,0,0,6.3737,6.3788,6.3834,6.3938,6.3983,6.4058,6.4021,6.4102,6.4157,6.4149,6.4249,6.4282,6.4346,6.4455,6.4506,6.4485,6.4668,6.4617,6.4624,6.463,6.4689,6.4705,6.472,6.4528,6.4527,6.4526,0,0,6.3848,6.3896,6.3982,6.4028,6.4098,6.4124,6.4144,6.4212,6.4234,6.4335,6.433,6.4394,6.4517,6.4562,6.4601,6.4728,6.472,6.475,6.4807,6.4867,6.488,6.4892,6.4935,6.4951,6.476,6.476,6.476,0,6.3889,6.4004,6.4026,6.4108,6.4153,6.4151,6.4237,6.428,6.4367,6.4397,6.4374,6.4526,6.4569,6.4688,6.4719,6.4752,6.4774,6.4741,6.4877,6.4889,6.4901,6.4942,6.4959,6.4763,6.4763,6.4763,6.4762,0,6.405,6.4129,6.419,6.4275,6.4327,6.4411,6.4443,6.4493,6.4499,6.4527,6.4628,6.4679,6.4757,6.4787,6.4793,6.4906,6.4891,6.4872,6.4829,6.492,6.4959,6.4975,6.4768,6.4767,6.4766,6.4765,0,0,6.4181,6.4277,6.4299,6.4337,6.4413,6.4474,6.4556,6.4633,6.4674,6.4734,6.4802,6.4905,6.4888,6.4932,6.4943,6.4996,6.5091,6.497,6.4972,6.4989,6.5215,6.5228,6.5246,6.5086,6.5089,6.5092,6.5209,0,6.4298,6.4446,6.4468,6.4597,6.4668,6.4667,6.4738,6.4791,6.4819,6.4882,6.4912,6.4984,6.4957,6.4983,6.5035,6.5068,6.5136,6.506,6.5147,6.515,6.5129,6.5267,6.5281,6.539,6.5225,6.5228,6.523,0,6.4456,6.4521,6.4658,6.4722,6.4753,6.4817,6.4888,6.495,6.5009,6.5025,6.5074,6.5079,6.5161,6.5116,6.5228,6.5176,6.5213,6.5234,6.5239,6.5246,6.5194,6.5276,6.5425,6.5441,6.5254,6.5252,6.5251,0,6.4535,6.4657,6.4754,6.4787,6.4865,6.4909,6.4944,6.5,6.5044,6.5106,6.5135,6.5206,6.5244,6.5297,6.532,6.5285,6.543,6.5387,6.5444,6.5443,6.5474,6.5471,6.5628,6.55,6.55,6.55,6.5499,0,6.4664,6.4747,6.4791,6.485,6.4942,6.4965,6.5055,6.5087,6.5137,6.5201,6.5204,6.5263,6.5291,6.5354,6.5372,6.5461,6.5479,6.5492,6.5496,6.5491,6.5489,6.5514,6.5507,6.5504,6.5503,6.5502,6.5502,0,6.4768,6.4801,6.4906,6.4971,6.4989,6.5054,6.5109,6.5165,6.5192,6.5273,6.5293,6.5335,6.5409,6.5438,6.5528,6.554,6.5642,6.5641,6.5623,6.5623,6.5678,6.5672,6.5856,6.588,6.5737,6.5739,6.574,0,6.4847,6.4911,6.4983,6.5026,6.5062,6.5133,6.5178,6.5203,6.525,6.5321,6.5368,6.5443,6.5503,6.5621,6.5659,6.5727,6.5726,6.5786,6.5736,6.5729,6.5724,6.572,6.5725,6.5794,6.5796,6.5797,6.5798,0,6.4983,6.4996,6.5063,6.5134,6.5189,6.5246,6.5302,6.5337,6.537,6.5422,6.5498,6.5546,6.5638,6.5711,6.5781,6.5814,6.5811,6.5813,6.583,6.5825,6.5811,6.5817,6.5646,6.5809,6.5807,6.5807,6.5806,6.5806,6.5076,6.5132,6.5191,6.5264,6.5309,6.536,6.5416,6.545,6.5515,6.5593,6.5603,6.5684,6.5739,6.5834,6.587,6.5932,6.5916,6.594,6.5946,6.5951,6.5954,6.5803,6.5945,6.5945,6.5945,6.5944,6.5944,0,6.5211,6.5249,6.5316,6.5394,6.5451,6.5444,6.5505,6.5553,6.5625,6.5677,6.5737,6.5823,6.5894,6.5937,6.6007,6.6048,6.6048,6.6066,6.6062,6.6069,6.5966,6.5944,6.6064,6.6064,6.6064,6.6064,6.6064,6.6064,6.5288,6.5381,6.5401,6.5515,6.5552,6.5633,6.5668,6.5714,6.5756,6.5853,6.5912,6.594,6.5988,6.6061,6.6124,6.6135,6.616,6.6178,6.6187,6.6089,6.6077,6.6065,6.6044,6.6184,6.6184,6.6285,6.6286,6.6286]}]]